This is the latest recevied weather packets stored in our database for station/object DG8SF-13. If no packets are shown the sender has not sent any weather packets the latest 10 day(s).
| Time | Temp. | Humidity | Pressure | Rain* | Wind** | Luminosity | Snow |
|---|---|---|---|---|---|---|---|
| 1787667640 | 20.56° C | 65% | 1013.9 hPa | 0 mm | - | - | - |
| 1787667330 | 21.11° C | 63% | 1013.9 hPa | 0 mm | - | - | - |
| 1787667017 | 21.67° C | 66% | 1014 hPa | 0 mm | - | - | - |
| 1787666720 | 21.11° C | 66% | 1014 hPa | 0 mm | - | - | - |
| 1787666380 | 20.56° C | 67% | 1014 hPa | 0 mm | - | - | - |
| 1787666058 | 20.56° C | 65% | 1014.1 hPa | 0 mm | - | - | - |
| 1787665733 | 20.56° C | 67% | 1014.1 hPa | 0 mm | - | - | - |
| 1787665422 | 20° C | 68% | 1014 hPa | 0 mm | - | - | - |
| 1787665097 | 20° C | 68% | 1014 hPa | 0 mm | - | - | - |
| 1787664785 | 20° C | 69% | 1014 hPa | 0 mm | - | - | - |
| 1787664472 | 20.56° C | 72% | 1014 hPa | 0 mm | - | - | - |
| 1787664163 | 19.44° C | 74% | 1014 hPa | 0 mm | - | - | - |
| 1787663849 | 19.44° C | 71% | 1013.9 hPa | 0 mm | - | - | - |
| 1787663550 | 19.44° C | 74% | 1014 hPa | 0 mm | - | - | - |
| 1787663226 | 18.89° C | 76% | 1014 hPa | 0 mm | - | - | - |
| 1787662890 | 18.89° C | 78% | 1014.1 hPa | 0 mm | - | - | - |
| 1787662576 | 18.89° C | 77% | 1014 hPa | 0 mm | - | - | - |
| 1787662268 | 18.89° C | 77% | 1014 hPa | 0 mm | - | - | - |
| 1787661953 | 18.33° C | 79% | 1014.1 hPa | 0 mm | - | - | - |
| 1787661642 | 18.33° C | 80% | 1014.1 hPa | 0 mm | - | - | - |
| 1787661304 | 18.33° C | 82% | 1014.1 hPa | 0 mm | - | - | - |
| 1787660970 | 17.78° C | 84% | 1014.1 hPa | 0 mm | - | - | - |
| 1787660622 | 17.78° C | 83% | 1014.1 hPa | 0 mm | - | - | - |
| 1787660298 | 17.78° C | 84% | 1014.2 hPa | 0 mm | - | - | - |
| 1787659984 | 17.22° C | 85% | 1014.1 hPa | 0 mm | - | - | - |
* Rain latest hour (hover to see other rain measurements)
** Current wind speed in m/s (hover to see current wind gust speed)